FW4199 Weather Reports


Display with metric or nautical units.
time (UTC)temp
F
wind
direction
speed
MPH
gust
MPH
rain 1hr
in
rain 24hr
in
rain mn
in
humidity
%
barometer
mb
20190916200017 65 22 4.0 15.0 0.00 0.00 0.00 65 1013.4
20190916195016 65 45 5.0 13.0 0.00 0.00 0.00 64 1013.4
20190916194016 65 67 3.0 10.0 0.00 0.00 0.00 65 1013.5
20190916193017 65 45 4.0 11.0 0.00 0.00 0.00 62 1013.5
20190916192016 66 22 4.0 11.0 0.00 0.00 0.00 61 1013.5
20190916191016 66 22 5.0 13.0 0.00 0.00 0.00 61 1013.4
20190916190016 66 22 3.0 9.0 0.00 0.00 0.00 61 1013.4
20190916185017 67 337 5.0 16.0 0.00 0.00 0.00 59 1013.4
20190916184016 68 45 2.0 11.0 0.00 0.00 0.00 60 1013.6
20190916183017 69 337 2.0 10.0 0.00 0.00 0.00 57 1013.6
20190916182016 70 337 3.0 11.0 0.00 0.00 0.00 58 1013.7
20190916181017 69 22 4.0 18.0 0.00 0.00 0.00 57 1013.8
20190916180017 69 22 2.0 7.0 0.00 0.00 0.00 58 1013.9
20190916175017 70 67 4.0 13.0 0.00 0.00 0.00 57 1013.9
20190916174017 70 45 3.0 12.0 0.00 0.00 0.00 58 1013.9
20190916173016 71 22 3.0 12.0 0.00 0.00 0.00 53 1013.9
20190916172016 71 22 4.0 12.0 0.00 0.00 0.00 57 1013.9
20190916171016 70 45 5.0 16.0 0.00 0.00 0.00 56 1014.2
20190916170016 70 22 5.0 20.0 0.00 0.00 0.00 58 1014.2
20190916165016 70 337 1.0 7.0 0.00 0.00 0.00 58 1014.3
20190916164016 69 337 4.0 15.0 0.00 0.00 0.00 54 1014.5
20190916163016 70 22 4.0 15.0 0.00 0.00 0.00 56 1014.5
20190916162016 69 0 3.0 10.0 0.00 0.00 0.00 58 1014.4
20190916161016 69 22 3.0 16.0 0.00 0.00 0.00 58 1014.7
20190916160016 68 22 6.0 19.0 0.00 0.00 0.00 56 1014.7
20190916155016 68 45 3.0 17.0 0.00 0.00 0.00 57 1014.9
20190916154017 68 22 3.0 12.0 0.00 0.00 0.00 61 1015.0
20190916153016 67 45 6.0 18.0 0.00 0.00 0.00 60 1015.0
20190916152016 67 337 4.0 19.0 0.00 0.00 0.00 62 1015.1
20190916151016 66 292 3.0 15.0 0.00 0.00 0.00 63 1015.3
20190916150016 65 22 3.0 7.0 0.00 0.00 0.00 64 1015.3
20190916145016 64 337 5.0 17.0 0.00 0.00 0.00 62 1015.4
20190916144016 63 315 3.0 12.0 0.00 0.00 0.00 69 1015.5
20190916143016 62 0 6.0 15.0 0.00 0.00 0.00 71 1015.5
20190916142016 60 337 3.0 17.0 0.00 0.00 0.00 72 1015.6
20190916141016 59 337 3.0 13.0 0.00 0.00 0.00 76 1015.9
20190916140016 59 315 4.0 16.0 0.00 0.00 0.00 74 1015.9
20190916135016 58 45 2.0 12.0 0.00 0.00 0.00 78 1016.0
20190916134016 58 0 3.0 10.0 0.00 0.00 0.00 80 1016.0
20190916133016 58 22 2.0 8.0 0.00 0.00 0.00 80 1016.0
20190916132016 58 45 2.0 12.0 0.00 0.00 0.00 79 1016.0
20190916131016 58 337 2.0 13.0 0.00 0.00 0.00 79 1016.0
20190916130016 58 0 3.0 10.0 0.00 0.00 0.00 81 1016.0
20190916125016 57 22 2.0 10.0 0.00 0.00 0.00 84 1016.0
20190916124016 56 45 2.0 11.0 0.00 0.00 0.00 84 1016.0
20190916123016 56 22 3.0 10.0 0.00 0.00 0.00 87 1016.0
20190916122016 55 45 2.0 10.0 0.00 0.00 0.00 88 1016.0
20190916121016 55 315 1.0 5.0 0.00 0.00 0.00 88 1016.0
20190916120016 55 315 1.0 10.0 0.00 0.00 0.00 89 1016.0
20190916115016 54 315 1.0 6.0 0.00 0.00 0.00 90 1016.0
20190916114016 54 0.0 0.0 0.00 0.00 0.00 90 1016.0
20190916113016 54 0.0 0.0 0.00 0.00 0.00 92 1016.0
20190916112016 54 0.0 2.0 0.00 0.00 0.00 92 1015.9
20190916111016 54 0.0 0.0 0.00 0.00 0.00 91 1015.7
20190916110016 54 0.0 1.0 0.00 0.00 0.00 91 1015.7
20190916105016 54 0.0 0.0 0.00 0.00 0.00 89 1015.6
20190916104016 54 0.0 0.0 0.00 0.00 0.00 89 1015.6
20190916103016 55 22 1.0 3.0 0.00 0.00 0.00 91 1015.6
20190916102016 55 45 2.0 6.0 0.00 0.00 0.00 91 1015.4
20190916101016 55 22 1.0 5.0 0.00 0.01 0.00 92 1015.2
20190916100016 55 45 2.0 6.0 0.00 0.01 0.00 91 1015.2
20190916095016 55 45 1.0 4.0 0.00 0.01 0.00 91 1015.0
20190916094016 55 0.0 3.0 0.00 0.01 0.00 90 1015.0
20190916093016 56 45 1.0 3.0 0.00 0.01 0.00 91 1015.0
20190916092016 56 0.0 2.0 0.00 0.01 0.00 92 1014.9
20190916091015 56 45 1.0 4.0 0.00 0.01 0.00 93 1014.9
20190916090015 56 45 1.0 5.0 0.00 0.01 0.00 93 1014.9
20190916085016 56 45 1.0 4.0 0.00 0.01 0.00 93 1014.9
20190916084016 56 45 1.0 3.0 0.00 0.01 0.00 93 1014.8
20190916083015 56 0.0 2.0 0.00 0.01 0.00 92 1014.8
20190916082015 57 0.0 3.0 0.00 0.01 0.00 92 1015.0
20190916081016 57 0.0 0.0 0.00 0.01 0.00 92 1014.8
20190916080016 57 45 1.0 5.0 0.00 0.01 0.00 91 1014.8
20190916075015 57 45 1.0 3.0 0.00 0.01 0.00 92 1014.7
20190916074015 57 0.0 0.0 0.00 0.01 0.00 92 1014.4
20190916073016 57 0.0 3.0 0.00 0.01 0.00 92 1014.4
20190916072015 57 0.0 3.0 0.00 0.01 0.00 93 1014.3
20190916071015 57 0.0 3.0 0.00 0.01 0.00 93 1014.2
20190916070015 58 0.0 3.0 0.00 0.01 0.00 91 1014.2
20190916065016 58 0.0 3.0 0.00 0.01 0.00 91 1014.0
20190916064016 58 22 1.0 3.0 0.00 0.01 0.00 90 1014.4
20190916063016 58 22 1.0 3.0 0.00 0.01 0.00 91 1014.4
20190916062015 58 22 2.0 6.0 0.00 0.01 0.00 92 1014.2
20190916061015 58 337 1.0 4.0 0.00 0.01 0.00 92 1014.0
20190916060016 58 337 1.0 4.0 0.00 0.01 0.00 89 1014.0
20190916055015 58 22 1.0 6.0 0.00 0.01 0.00 90 1014.3
20190916054015 58 45 1.0 4.0 0.00 0.01 0.00 92 1014.4
20190916053016 58 22 2.0 6.0 0.00 0.01 0.00 93 1014.4
20190916052015 58 45 2.0 7.0 0.00 0.01 0.00 93 1014.5
20190916051015 58 45 1.0 3.0 0.00 0.01 0.00 91 1014.5
20190916050015 59 0.0 3.0 0.00 0.01 0.00 89 1014.5
20190916045015 59 0.0 0.0 0.00 0.01 0.00 89 1014.4
20190916044015 59 0.0 3.0 0.00 0.01 0.00 90 1014.4
20190916043015 59 45 1.0 5.0 0.00 0.01 0.00 91 1014.4
20190916042015 60 45 1.0 4.0 0.00 0.01 0.00 91 1014.4
20190916041015 60 45 1.0 4.0 0.00 0.01 0.00 88 1014.4
20190916040015 60 0.0 3.0 0.00 0.01 0.01 88 1014.4
20190916035017 60 45 1.0 4.0 0.00 0.01 0.01 87 1014.4
20190916034017 60 315 1.0 2.0 0.00 0.01 0.01 88 1014.4
20190916033017 60 0.0 3.0 0.00 0.01 0.01 89 1014.5
20190916032017 61 0.0 0.0 0.00 0.01 0.01 85 1014.4
20190916031017 61 0.0 0.0 0.00 0.02 0.01 86 1014.4
20190916030017 61 0.0 0.0 0.00 0.02 0.01 85 1014.4
20190916025016 62 0.0 0.0 0.00 0.02 0.01 84 1014.3
20190916024016 62 0.0 0.0 0.00 0.02 0.01 85 1014.3
20190916023016 61 0.0 0.0 0.00 0.02 0.01 83 1014.3
20190916022017 61 0.0 2.0 0.00 0.02 0.01 84 1014.2
20190916021016 61 0.0 2.0 0.00 0.02 0.01 83 1014.3
20190916020017 62 0.0 2.0 0.00 0.02 0.01 83 1014.3
20190916015016 62 0.0 3.0 0.00 0.02 0.01 83 1014.4
20190916014016 62 0.0 0.0 0.00 0.02 0.01 83 1014.3
20190916013016 62 315 1.0 3.0 0.00 0.02 0.01 83 1014.3
20190916012017 62 315 1.0 2.0 0.00 0.02 0.01 83 1014.3
20190916011016 62 315 1.0 4.0 0.00 0.02 0.01 83 1014.3
20190916010016 63 315 1.0 2.0 0.00 0.02 0.01 82 1014.3
20190916005016 63 315 1.0 4.0 0.00 0.02 0.01 81 1014.3
20190916004016 63 315 1.0 3.0 0.00 0.02 0.01 81 1014.3
20190916003016 64 0.0 2.0 0.00 0.02 0.01 82 1014.3
20190916002016 64 315 1.0 3.0 0.00 0.02 0.01 82 1014.4
20190916001017 64 0.0 3.0 0.00 0.02 0.01 84 1014.4
20190916000016 65 0.0 2.0 0.00 0.02 0.01 85 1014.4
20190915235017 65 0.0 1.0 0.00 0.02 0.01 84 1014.0
20190915234016 65 0.0 0.0 0.00 0.03 0.01 79 1013.8
20190915233016 65 0.0 0.0 0.00 0.03 0.01 79 1013.8
20190915232016 66 0.0 2.0 0.00 0.03 0.01 78 1014.3
20190915231016 66 0.0 2.0 0.00 0.03 0.01 78 1014.2
20190915230016 66 0.0 0.0 0.00 0.04 0.01 77 1014.2
20190915225016 66 0.0 0.0 0.00 0.05 0.01 76 1014.4
20190915224016 66 0.0 2.0 0.00 0.07 0.01 78 1014.8
20190915223016 67 315 1.0 3.0 0.00 0.09 0.01 78 1014.8
20190915222016 67 315 1.0 3.0 0.00 0.10 0.01 76 1014.5
20190915221016 68 315 1.0 4.0 0.00 0.10 0.01 76 1014.5
20190915220016 68 0.0 2.0 0.00 0.10 0.01 75 1014.5
20190915215021 69 315 1.0 5.0 0.00 0.10 0.01 74 1014.4
20190915214016 69 270 1.0 4.0 0.00 0.10 0.01 74 1014.1
20190915213016 69 292 1.0 5.0 0.00 0.10 0.01 73 1014.1
20190915212017 69 0 1.0 6.0 0.00 0.10 0.01 71 1014.0
20190915211016 70 292 1.0 3.0 0.00 0.10 0.01 70 1014.0
20190915210016 70 292 1.0 5.0 0.00 0.10 0.01 70 1014.0
20190915205016 70 337 2.0 5.0 0.00 0.10 0.01 70 1014.0
20190915204016 70 270 2.0 6.0 0.00 0.10 0.01 74 1013.9
20190915203018 70 337 1.0 3.0 0.00 0.10 0.01 70 1013.9
20190915202016 71 270 2.0 10.0 0.00 0.10 0.01 73 1014.0
20190915201016 71 315 2.0 9.0 0.00 0.10 0.01 70 1014.1